Location: Chenereilles
(45.4866°N, 4.0790°E)
Time: 18:29:42
(UTC+00:00)

Cosmos 1980 Rocket - Pass Details

Date: 12 November 2019
Orbit: 828 x 851 km, 71.0° (Epoch: 11 December)

Event Time Altitude Azimuth Distance (km) Brightness Sun altitude
Rises 19:21:02 0° 204° (SSW) 3,379 5.5 -32.3°
Reaches altitude 10° 19:23:27 10° 204° (SSW) 2,452 4.7 -32.7°
Enters shadow 19:24:57 19° 205° (SSW) 1,895 4.1 -33.0°
